Voltar ao catálogo

STARLINK-35274

AtivoComunicaçõesVLEO
NORAD 66073·PAYLOAD·🇺🇸 United States

Lançado Oct 19, 2025 de Cape Canaveral Space Force Station

Loading…

Próximas Passagens (próximas 24 horas)

TLE

AtualizadoSource: CelesTrak SupGP

Época: Sep 15, 2026, 04:03 UTC

1 66073C 25235R   26258.16923611 -.00024690  00000+0 -72951-3 0  2588
2 66073  53.1581  84.7603 0001114  89.3292  42.0018 15.34401484    15

Acompanhe STARLINK-35274 em tempo real com AllMySat

Download on the App Store